Regional Weather Roundup
Issued by NWS

Home | Current Version | Previous Version | Graphics & Text | Print | Product List | Glossary On
Versions: 1 2 3 4 5 6 7 8 9 10 11 12 13 14 15 16 17 18 19 20 21 22 23 24 25 26 27 28 29 30 31 32 33 34 35 36 37 38 39 40 41 42 43 44 45 46 47 48 49 50
000
ASUS43 KMPX 230510
RWRMN
WEATHER ROUNDUP FOR MINNESOTA
NATIONAL WEATHER SERVICE TWIN CITIES/CHANHASSEN MN
1200 AM CDT THU MAR 23 2017


NOTE: "FAIR" INDICATES FEW OR NO CLOUDS BELOW 12,000 FEET WITH NO
SIGNIFICANT WEATHER AND/OR OBSTRUCTIONS TO VISIBILITY. N/A MEANS
CURRENT SKY AND/OR WEATHER CONDITIONS ARE NOT AVAILABLE.

MNZ060>063-068>070-230600-
   Twin Cities Metro

CITY           SKY/WX    TMP DP  RH WIND       PRES   REMARKS
TWIN CITIES    CLOUDY    37  15  40 SE13      30.27F
ST PAUL        CLOUDY    37  15  40 SE14      30.29F
CRYSTAL        CLOUDY    37  13  37 SE13      30.26F
BLAINE         CLOUDY    37  12  35 SE10      30.26F
LAKEVILLE      CLOUDY    36  19  51 SE9       30.27S
EDEN PRAIRIE   CLOUDY    37  17  44 SE10      30.26S
SOUTH ST PAUL  CLOUDY    37  13  36 SE12      30.27F
LAKE ELMO      CLOUDY    36  16  44 SE8       30.29F
$$
MNZ001>005-007-008-013>017-022>024-027-028-230600-
   Northwest Minnesota

CITY           SKY/WX    TMP DP  RH WIND       PRES   REMARKS
BEMIDJI        CLOUDY    32  17  53 SE17      30.13F WCI  21
HALLOCK        CLOUDY    32  25  74 SE17      30.04F WCI  21
ROSEAU         CLOUDY    34  23  64 S15       30.09F WCI  24
WARROAD        CLOUDY    30  23  74 S12       30.11F WCI  21
THIEF RVR FALL   N/A    N/A N/A N/A MISG        N/A
CROOKSTON      CLOUDY    34  23  64 S17       30.07F WCI  23
FOSSTON        CLOUDY    32  19  59 S14G24    30.09F WCI  22
DETROIT LAKES  CLOUDY    34  23  64 S17       30.12S WCI  23
MOORHEAD       CLOUDY    36  23  60 S25G32    30.08F
PARK RAPIDS    CLOUDY    33  17  51 S14       30.14F WCI  23
MAHNOMEN       CLOUDY    33  20  59 S18G24    30.09F WCI  22
$$
MNZ006-009>011-018-025>026-230600-
   North Central Minnesota

CITY           SKY/WX    TMP DP  RH WIND       PRES   REMARKS
BAUDETTE       CLOUDY    30  21  69 SE12      30.13F WCI  20
FLAG ISLAND    CLOUDY    28  23  80 S21       30.12F WCI  15
INTL FALLS     FLURRIES  30  20  66 S10G16    30.21R WCI  21
WASKISH        CLOUDY    32  19  59 SE10G16   30.14F WCI  24
BIG FORK       CLOUDY    32  19  59 S12G18    30.19F WCI  23
LONGVILLE      CLOUDY    32  18  55 SE10G20   30.18S WCI  24
GRAND RAPIDS   CLOUDY    32  16  51 SE13      30.21F WCI  22
CRANE LAKE     CLOUDY    30  10  43 SE3       30.25F
ORR            LGT SNOW  28  16  59 S18G24    30.21S WCI  16
COOK           CLOUDY    30  14  51 SE7       30.24F WCI  23
WALKER         CLOUDY    32  18  56 SE10G16   30.15F WCI  23
$$
MNZ012-019>021-037-230600-
   Northeast Minnesota

CITY           SKY/WX    TMP DP  RH WIND       PRES   REMARKS
DULUTH         FLURRIES  29  21  72 E12       30.26F WCI  19
ELY            CLOUDY    25  16  68 SE9       30.26F WCI  15
HIBBING        CLOUDY    28  15  58 S9        30.23F WCI  19
EVELETH        CLOUDY    29  13  51 SE9       30.26F WCI  20
DULUTH HARBOR  CLOUDY    32  25  74 CALM      30.32F
TWO HARBORS    MOCLDY    30  23  74 E8        30.29F WCI  23
SILVER BAY     MOCLDY    28  23  80 E7        30.30F WCI  21
GRAND MARAIS     N/A     27  18  69 N3        30.37F
G MARAIS ARPRT CLOUDY    19  12  73 SE3       30.30F
$$
MNZ029>031-032-039>041-046>048-054>057-064-230600-
   West Central Minnesota

CITY           SKY/WX    TMP DP  RH WIND       PRES   REMARKS
FERGUS FALLS   CLOUDY    36  21  55 S24G30    30.15F
WHEATON        CLOUDY    36  25  64 SE22      30.10F
MORRIS         CLOUDY    36  23  60 SE21      30.11F
ALEXANDRIA     CLOUDY    35  21  56 S16       30.16S WCI  25
ELBOW LAKE     CLOUDY    34  23  63 SE23G30   30.12F WCI  22
WADENA         CLOUDY    32  19  59 SE15G21   30.15S WCI  22
GLENWOOD       CLOUDY    36  21  55 SE20G26   30.16F
APPLETON       CLOUDY    37  25  60 SE13G21   30.13F
BENSON         CLOUDY    37  19  48 S15G21    30.16F
ORTONVILLE     CLOUDY    36  27  69 SE17G23   30.10S
MADISON        CLOUDY    37  28  70 SE16      30.12F
WILLMAR        CLOUDY    37  25  60 SE17      30.18F
$$
MNZ033>034-036-042>043-049>051-058-059-230600-
   Central Minnesota

CITY           SKY/WX    TMP DP  RH WIND       PRES   REMARKS
ST CLOUD       CLOUDY    35  16  45 SE15      30.21F WCI  25
SAUK CENTRE    CLOUDY    33  21  61 SE15      30.17F WCI  23
PAYNESVILLE      N/A     35  23  60 SE15G21   30.19F WCI  25
AITKIN         CLOUDY    34  18  51 SE13G18   30.20F WCI  25
PINE RIVER     CLOUDY    32  19  59 SE9G16    30.21F WCI  24
BRAINERD       CLOUDY    33  15  47 SE8       30.20F WCI  26
STAPLES        CLOUDY    34  18  51 S14G20    30.17S WCI  24
LONG PRAIRIE   CLOUDY    32  21  64 E13G23    30.17F WCI  22
LITTLE FALLS   CLOUDY    34  14  44 SE9G20    30.21F WCI  26
LITCHFIELD     CLOUDY    37  23  56 SE12      30.20F
BUFFALO        CLOUDY    36  17  45 SE9       30.24F
MAPLE LAKE     CLOUDY    37  22  54 SE10G17   30.23F
HUTCHINSON     CLOUDY    37  25  62 SE13G20   30.22F
$$
MNZ037-044-045-052-053-230600-
   East Central Minnesota

CITY           SKY/WX    TMP DP  RH WIND       PRES   REMARKS
PRINCETON      CLOUDY    37  12  35 SE7       30.25F
MORA           CLOUDY    34  16  47 SE7       30.27F WCI  28
CAMBRIDGE      CLOUDY    37  19  48 SE9       30.24F
RUSH CITY      CLOUDY    35  15  44 SE9       30.27F WCI  27
MOOSE LAKE     CLOUDY    32  16  51 S8        30.25F WCI  25
HINCKLEY       CLOUDY    34  18  51 SE6       30.27F WCI  29
CLOQUET        CLOUDY    30  18  59 E6        30.26F WCI  24
MCGREGOR       CLOUDY    32  18  55 SE12      30.23F WCI  23
$$
MNZ071>073-080-081-089-090-097-098-230600-
   Southwest Minnesota

CITY           SKY/WX    TMP DP  RH WIND       PRES   REMARKS
MONTEVIDEO     CLOUDY    36  25  64 S13G20    30.16S
GRANITE FALLS  CLOUDY    37  28  67 SE17      30.16F
CANBY          CLOUDY    38  27  64 SE13      30.12F
MARSHALL       CLOUDY    37  25  61 S22       30.12F
REDWOOD FALLS  CLOUDY    37  23  56 SE18G26   30.18S
OLIVIA         CLOUDY    36  25  64 SE16G22   30.18S
PIPESTONE      CLOUDY    36  21  55 S16G22    30.08F
WINDOM         CLOUDY    37  23  56 SE15G22   30.17S
WORTHINGTON    CLOUDY    36  23  59 SE16      30.15F
JACKSON        CLOUDY    36  23  60 SE17G23   30.18S
TRACY          CLOUDY    37  27  65 S16G22    30.13F
SLAYTON        CLOUDY    34  26  71 SE16      30.13F WCI  24
$$
MNZ065>067-074>077-082>085-091>093-230600-
   South Central Minnesota

CITY           SKY/WX    TMP DP  RH WIND       PRES   REMARKS
MANKATO        CLOUDY    37  21  52 SE18G26   30.23F
NEW ULM        CLOUDY    36  21  55 SE15      30.20S
ST JAMES       CLOUDY    36  25  64 SE15G21   30.21S
FAIRMONT       CLOUDY    36  23  59 SE17G26   30.20S
GLENCOE        CLOUDY    38  25  59 SE13      30.22F
FARIBAULT      CLOUDY    37  19  48 SE14      30.26F
OWATONNA       CLOUDY    36  18  48 SE14G22   30.25F
WASECA         CLOUDY    36  23  60 SE15G23   30.25F
ALBERT LEA     CLOUDY    36  19  51 SE17G26   30.24F
$$
MNZ078>079-086>088-094>096-230600-
   Southeast Minnesota

CITY           SKY/WX    TMP DP  RH WIND       PRES   REMARKS
ROCHESTER      CLOUDY    35  19  52 S15       30.29S WCI  25
RED WING       CLOUDY    37  10  32 SE10      30.30F
STANTON        CLOUDY    38  18  45 SE10      30.26F
DODGE CENTER   CLOUDY    34  21  60 SE16      30.27F WCI  23
WINONA         CLOUDY    37  14  38 SE9       30.34S
AUSTIN         CLOUDY    36  19  51 SE12      30.26F
PRESTON        CLOUDY    35  16  47 SE15      30.30F WCI  25
$$
ABBREVIATIONS USED IN REMARKS
   TC - TEMPERATURES IN CELSIUS
  WCI - WIND CHILL INDEX
   HX - HEAT INDEX
  VSB - VISIBILITY
$$




USA.gov is the U.S. government's official web portal to all federal, state and local government web resources and services.